RH
45 59 78 72 69 71 70 70 73 80 78 74 70 70 75 76 74 70 69 68 66 66 69 69 66 66 68 66 68 67 70 73 74 77 78 74 68 62 62 64 71 50 63
40 51 82 71 68 68 68 72 76 76 78 79 77 77 70 73 77 69 68 67 65 62 65 65 65 66 66 67 70 70 70 73 76 78 77 78 77 64 60 63 66 55 59
42 53 58 76 70 69 69 70 71 73 75 71 69 75 77 74 73 73 69 67 67 64 64 64 64 69 69 68 66 69 71 72 74 75 78 55 52 66 61 64 62 61 58
43 56 55 83 78 76 74 73 72 72 73 73 72 73 75 75 77 77 77 70 68 67 66 67 66 67 70 69 69 67 66 69 74 77 54 39 38 72 66 65 65 60 60
45 58 64 86 81 81 81 80 78 76 76 76 77 76 76 76 76 77 80 77 72 71 70 68 69 69 67 66 65 65 68 69 76 72 46 47 48 59 69 71 64 64 62
49 62 76 84 82 84 84 83 83 81 81 81 82 82 81 80 80 80 82 83 81 78 77 75 74 73 74 75 73 70 68 71 82 51 45 45 49 57 63 70 73 68 67
66 67 71 85 81 77 76 73 72 74 72 72 71 73 82 82 82 85 86 86 86 84 81 81 79 79 78 78 79 78 76 80 60 43 41 44 48 65 66 68 71 71 71
64 60 61 76 74 70 68 67 66 64 62 62 60 59 60 64 66 66 67 71 79 79 83 84 83 81 81 82 81 82 86 87 62 49 44 46 58 62 66 69 71 74 76
48 50 49 46 59 69 66 65 62 61 60 59 59 56 53 52 51 51 52 62 61 66 68 70 73 80 85 84 85 87 88 90 73 60 52 46 62 62 65 68 71 73 72
41 41 42 41 37 37 39 61 61 59 56 53 53 54 59 58 57 47 54 60 61 61 62 61 65 68 72 75 83 89 92 90 75 70 68 71 66 60 61 65 68 71 73
42 38 33 31 31 32 31 37 51 53 49 53 46 59 46 23 25 28 59 62 60 58 58 56 59 60 66 69 70 88 93 63 65 73 68 80 77 72 75 77 72 68 70
44 38 32 30 28 28 22 30 32 30 31 31 29 30 26 28 29 36 52 62 58 58 59 55 54 61 65 27 26 71 38 35 45 59 68 83 82 80 77 78 80 79 75
38 35 34 33 29 27 28 30 30 30 32 33 35 36 32 31 33 33 35 35 38 50 36 40 38 31 30 30 27 24 24 23 25 30 44 82 81 80 78 77 76 79 81
40 38 35 32 34 32 30 30 29 31 35 33 38 37 36 37 33 30 31 34 39 37 38 40 38 36 35 34 30 28 26 26 26 27 32 84 83 79 73 73 74 74 74
41 37 35 34 36 37 37 35 32 33 33 37 36 35 34 33 31 30 30 30 32 32 33 36 36 35 34 32 32 33 34 33 32 31 31 66 77 66 57 59 60 60 61
39 43 38 35 35 36 38 42 35 37 35 36 34 31 32 33 35 39 39 37 39 37 38 39 39 41 39 35 34 34 33 34 32 33 34 36 64 67 59 56 58 57 57
34 34 36 35 38 36 41 43 42 40 37 36 33 29 35 40 45 48 47 46 43 42 44 44 43 42 43 40 42 40 40 37 38 39 40 40 42 62 71 59 57 58 59
33 34 34 31 37 38 40 44 43 40 37 34 34 35 37 41 44 47 47 45 46 48 48 48 48 47 47 46 43 41 38 38 38 39 42 42 45 41 53 67 62 63 65
30 30 36 37 38 42 44 47 47 45 38 34 34 36 41 43 43 47 48 48 47 50 50 50 50 49 51 50 48 44 43 42 45 41 42 41 45 48 49 59 70 74 71
31 31 33 38 39 43 45 46 44 38 36 34 37 40 46 44 46 51 50 49 50 51 49 49 51 50 51 49 45 44 45 49 50 47 45 42 45 48 48 52 56 54 78
33 35 38 40 41 43 41 41 38 36 39 36 38 47 47 47 49 52 52 50 50 51 50 49 51 55 54 50 56 55 50 50 53 50 51 49 48 49 51 52 52 50 50
31 36 38 40 40 44 45 44 44 40 40 41 46 50 49 50 53 53 54 55 53 54 52 52 56 61 55 51 60 61 57 51 49 46 48 48 48 52 50 49 51 50 54
40 36 37 40 44 45 48 49 50 47 51 48 40 46 51 51 54 59 59 61 58 59 66 66 70 71 67 58 54 64 66 63 67 45 45 46 47 49 50 50 48 50 53
41 41 39 42 46 45 48 52 50 50 51 45 46 45 53 51 53 57 61 61 62 64 67 73 62 71 64 66 60 51 66 69 74 69 55 51 52 48 50 51 51 53 58
42 49 46 44 46 48 52 53 52 50 48 45 44 43 46 51 52 55 60 65 69 66 69 72 71 65 62 68 63 63 64 67 72 86 77 68 59 54 48 51 53 60 60
43 46 51 49 48 47 53 55 56 56 52 50 48 46 43 50 54 56 59 62 64 68 70 72 72 70 68 73 68 65 70 77 73 87 87 77 72 59 54 49 54 59 63
Wind_Speed
10 12 9 8 8 8 7 7 7 8 11 8 7 5 4 5 4 5 5 6 6 7 7 7 8 7 7 7 7 6 7 8 8 8 5 5 6 6 6 7 12 10 8
12 14 9 9 9 9 8 7 7 7 8 9 10 8 3 5 7 4 3 4 5 5 5 6 6 6 6 5 4 4 4 6 7 7 6 4 4 4 4 4 8 7 6
14 13 11 9 10 9 8 6 6 6 6 7 9 10 8 4 6 2 2 2 2 3 4 4 4 4 4 4 4 4 3 4 5 6 8 9 6 5 1 0 1 2 3
13 10 12 10 9 10 8 7 5 6 6 7 7 8 8 8 7 7 5 2 1 1 2 3 3 3 3 4 4 5 5 5 6 8 10 3 4 8 2 3 2 1 0
11 12 12 9 8 8 7 5 4 4 5 5 6 6 6 7 7 8 9 3 1 2 3 3 3 3 4 5 6 6 7 7 7 10 7 4 4 8 2 5 7 6 5
9 12 10 8 9 9 10 10 11 8 8 8 8 9 8 7 7 8 9 9 4 4 6 6 6 6 6 7 7 7 7 7 7 10 6 4 3 3 1 6 8 5 5
13 10 12 13 13 11 11 11 11 10 10 10 10 10 10 8 8 10 9 8 8 9 8 9 9 9 9 9 10 9 9 6 8 10 9 6 6 4 4 8 8 9 9
12 11 11 12 13 13 12 11 11 10 10 10 10 10 9 8 7 7 8 8 9 10 10 10 10 11 12 11 12 11 10 8 9 10 9 6 5 2 7 9 11 12 12
10 8 8 9 11 13 12 10 10 9 9 8 8 8 6 5 5 6 6 8 10 10 10 10 10 10 11 11 12 11 11 11 10 9 10 6 7 8 9 12 12 13 13
9 7 6 6 5 5 7 8 8 7 6 5 4 5 7 7 1 3 5 9 10 10 10 10 10 11 11 12 12 9 10 10 11 11 8 6 4 6 10 13 15 14 14
6 4 4 5 5 4 4 3 4 3 1 4 3 1 8 5 7 8 7 6 9 9 10 9 10 11 11 14 16 10 6 7 9 7 6 7 8 9 11 15 16 16 17
7 5 4 4 4 3 2 3 3 3 4 5 6 8 6 7 6 5 7 6 8 7 11 8 9 11 12 8 6 10 6 9 7 7 6 9 9 12 14 16 15 17 17
8 6 4 4 3 3 3 3 2 3 4 4 6 7 7 6 6 6 5 5 6 5 6 7 8 6 8 8 8 8 9 10 6 7 8 11 10 11 14 15 15 15 17
8 6 4 4 2 3 2 3 3 3 4 4 5 7 7 5 6 7 6 7 6 6 8 7 6 9 10 10 11 11 11 9 6 6 8 5 7 7 11 15 15 15 15
7 6 4 3 2 2 2 2 3 3 3 5 5 6 6 7 7 7 7 7 7 7 7 8 8 8 10 11 10 10 11 11 11 7 6 4 8 7 10 14 16 16 16
6 5 5 3 2 2 3 3 4 4 5 4 5 5 7 6 7 7 8 7 7 7 7 8 8 8 8 9 10 10 10 9 11 10 7 8 7 8 10 13 16 16 16
5 5 4 3 2 0 1 3 3 3 4 4 5 7 7 7 7 8 7 7 7 7 10 8 8 8 8 8 9 9 8 9 8 9 8 7 8 8 10 10 13 14 16
5 6 5 3 3 1 1 2 3 3 4 4 5 5 7 8 8 8 7 6 7 6 6 7 7 7 7 7 8 7 7 6 8 8 7 6 6 6 6 11 7 10 12
5 5 4 5 4 2 2 2 3 3 4 4 4 5 7 8 7 7 6 6 7 5 5 5 6 7 6 6 7 7 6 5 5 4 6 7 6 5 5 7 5 9 11
5 4 4 4 3 3 2 3 4 3 3 3 4 5 7 6 7 6 6 6 5 5 5 5 7 7 7 6 9 7 4 3 3 4 5 5 5 6 6 7 6 6 8
6 6 7 6 5 3 3 3 4 3 4 4 4 6 6 6 6 6 5 6 5 5 6 6 6 8 6 6 6 6 3 1 3 2 3 4 5 6 6 5 5 5 6
7 7 7 6 4 3 3 3 2 4 4 4 4 5 5 5 5 6 6 5 6 5 7 7 8 7 7 6 6 6 3 3 2 2 2 4 6 5 5 4 5 6 6
5 6 6 6 4 4 4 3 3 4 5 5 4 4 4 5 5 5 6 5 6 5 4 4 4 6 6 6 6 5 4 4 7 2 3 5 7 5 4 5 5 5 6
4 4 4 4 4 4 4 5 7 6 7 6 5 5 5 6 5 5 5 5 6 4 5 4 4 3 5 6 5 3 1 3 3 5 6 6 8 8 5 4 5 6 6
4 4 4 4 5 5 6 7 6 7 6 6 5 7 7 6 6 5 4 5 4 4 4 5 5 5 4 5 5 4 4 4 3 2 7 8 8 8 6 4 4 5 6
3 3 3 5 6 5 6 7 9 10 9 7 7 6 6 5 4 5 5 5 6 4 3 4 5 4 4 5 5 5 4 3 4 1 2 7 7 6 9 4 3 5 5
Wind_Direction
130 114 112 109 103 94 91 87 78 61 63 65 61 54 49 31 64 71 67 59 49 42 47 50 45 41 38 39 48 53 57 48 46 46 50 70 73 66 53 12 348 70 62
133 116 120 114 107 102 95 87 76 66 61 51 45 32 58 31 53 66 54 45 42 40 40 37 38 38 38 33 35 44 40 26 20 7 332 252 136 102 91 40 23 86 82
124 124 131 118 111 108 103 95 84 67 52 49 47 42 49 55 42 54 23 27 38 33 32 33 31 28 22 16 0 345 340 349 352 334 297 270 142 122 58 227 115 109 106
118 129 125 125 116 112 108 98 83 67 53 44 45 47 47 45 41 25 3 271 316 16 6 4 7 360 344 337 330 323 315 313 320 312 282 291 313 139 207 226 222 237 116
125 120 112 132 127 109 101 100 96 78 56 39 33 34 36 36 30 22 14 325 309 313 306 299 293 291 297 304 309 310 305 305 309 296 302 301 321 111 140 285 236 231 238
118 96 104 110 101 89 79 71 64 68 55 44 37 36 29 31 26 20 18 14 335 300 295 285 280 277 277 280 285 290 293 295 301 278 276 268 255 96 339 299 257 261 237
93 103 95 86 85 83 78 69 63 57 52 46 39 38 34 28 21 19 15 4 349 334 305 287 279 278 272 268 269 272 275 273 277 289 289 273 272 89 298 271 264 246 245
116 115 105 86 84 77 71 68 63 58 53 46 37 33 32 29 23 17 8 3 358 356 349 341 318 293 283 276 268 263 258 252 272 270 270 277 279 207 272 280 268 253 248
86 99 104 104 104 85 70 64 64 58 53 47 38 22 13 14 9 4 359 10 356 350 345 341 332 327 332 299 289 284 263 245 261 276 287 266 246 225 261 271 274 267 265
83 65 105 121 101 81 94 67 66 56 45 39 30 3 313 273 229 257 293 20 345 340 336 330 327 327 325 313 293 290 280 254 250 257 269 275 169 222 269 273 270 269 269
85 100 115 101 93 92 82 90 155 114 232 265 252 241 295 323 324 337 65 345 321 320 318 312 316 313 302 282 259 254 262 258 261 263 257 277 290 271 269 272 272 273 271
129 131 103 81 67 66 44 22 3 347 356 351 347 341 336 337 337 295 281 254 275 276 286 268 282 277 270 285 298 221 258 271 246 232 251 244 279 272 275 282 283 271 270
136 122 104 89 63 33 32 325 3 343 344 345 356 347 340 333 339 323 326 329 331 289 318 312 306 296 310 300 296 289 294 294 289 287 271 186 227 262 280 289 292 292 280
148 133 128 111 72 44 338 9 347 345 335 351 348 344 344 336 330 328 326 324 315 317 318 310 312 308 300 295 293 294 293 294 298 298 296 192 211 258 285 295 296 295 298
148 149 143 116 103 44 17 350 350 350 350 341 337 341 345 330 330 328 320 317 315 317 313 316 309 306 305 303 299 295 294 292 290 291 292 261 204 248 286 289 288 288 289
149 161 154 144 89 62 20 1 346 349 343 335 331 337 332 332 322 319 318 315 316 316 314 311 307 304 303 300 301 299 295 294 290 292 291 295 289 238 263 284 289 289 290
173 154 171 141 118 333 10 352 338 337 322 325 329 330 332 329 323 320 313 311 312 328 310 310 307 311 309 307 302 301 298 297 302 299 302 299 300 286 241 265 281 291 295
177 192 159 155 187 242 349 328 332 327 315 324 322 319 328 329 326 318 312 315 327 313 308 308 317 317 317 316 312 314 305 305 302 305 298 296 297 303 307 251 263 294 297
205 191 188 200 206 217 277 305 299 286 296 315 307 320 334 320 325 320 319 324 329 315 307 312 324 321 319 317 309 310 304 311 310 315 312 318 319 318 317 317 238 261 269
211 214 207 200 212 224 263 250 243 267 260 313 312 320 321 317 326 320 314 322 328 314 307 336 325 323 316 325 321 302 315 304 297 331 337 328 330 318 312 318 308 308 231
211 210 211 211 210 232 258 297 298 311 314 297 325 317 314 317 316 314 314 317 323 312 320 314 324 324 321 337 311 329 264 40 243 335 348 348 341 343 320 302 305 325 319
221 211 210 212 218 236 276 294 300 320 309 311 294 292 300 299 311 307 314 316 318 319 320 336 341 333 324 350 340 299 340 184 24 224 338 333 351 329 339 322 313 307 325
210 207 206 207 224 237 255 267 262 259 242 246 277 299 293 289 291 293 314 307 309 316 319 342 337 329 323 324 10 346 334 3 340 74 27 346 357 331 351 343 326 340 335
184 194 194 211 231 251 248 256 265 279 289 293 296 292 286 276 273 281 289 295 302 305 313 328 323 315 322 322 332 13 348 354 335 318 353 338 359 324 356 348 358 340 6
146 187 213 230 247 251 252 252 271 273 278 280 284 288 279 271 254 258 295 290 299 298 306 300 307 307 315 307 321 322 328 315 257 255 312 333 333 327 355 357 348 2 16
151 208 233 249 259 256 251 259 262 271 279 283 283 288 286 280 278 255 242 266 282 289 301 301 309 306 316 326 309 305 296 295 319 330 296 324 321 332 308 336 8 6 25